Regional Weather Roundup
Issued by NWS Albany, NY

Home | Current Version | Previous Version | Text Only | Print | Product List | Glossary On
Versions: 1 2 3 4 5 6 7 8 9 10 11 12 13 14 15 16 17 18 19 20 21 22 23 24 25 26 27 28 29 30 31 32 33 34 35 36 37 38 39 40 41 42 43 44 45
000
ASUS41 KALY 221910
RWRALY

NEW YORK STATE HOURLY WEATHER ROUNDUP
NATIONAL WEATHER SERVICE ALBANY NY
200 PM EST MON DEC 22 2014

NOTE: "FAIR" INDICATES FEW OR NO CLOUDS BELOW 12,000 FEET WITH NO
SIGNIFICANT WEATHER AND/OR NO OBSTRUCTIONS TO VISIBILITY.

NYZ032-033-038>043-046>054-057>066-NYZ062>081-222000-
EAST


CITY           SKY/WX    TMP DP  RH WIND       PRES   REMARKS
ALBANY         FLURRIES  34  26  72 CALM      30.28F
GLENS FALLS    CLOUDY    33  26  75 E5        30.28F WCI  29
POUGHKEEPSIE   CLOUDY    39  32  76 N3        30.25F
NEWBURGH       CLOUDY    36  34  93 VRB5      30.25F FOG     WCI  32
MONTGOMERY     CLOUDY    37  31  78 N3        30.23F
WHITE PLAINS   PTSUNNY   42  35  76 E8        30.22F
ISLIP          CLOUDY    45  38  76 E9        30.22F
NEW YORK CITY  CLOUDY    41  37  86 NE15      30.23F
CENTRAL PARK   CLOUDY    41  36  82 VRB6      30.25F
$$

NYZ005>009-017-018-044>046-055-056-222000-
CENTRAL


CITY           SKY/WX    TMP DP  RH WIND       PRES   REMARKS
FULTON         MOSUNNY   38  27  64 VRB6      30.17F WCI  33
SYRACUSE       MOSUNNY   39  29  67 SE16      30.18F WCI  30
ROME           CLOUDY    36  28  73 E12       30.23F WCI  28
ELMIRA         CLOUDY    36  25  64 SE6       30.14F WCI  31
BINGHAMTON     MOSUNNY   34  27  75 SE10      30.13F WCI  26
MONTICELLO     CLOUDY    32  32 100 SE7       30.21R WCI  26
$$

NYZ026>034-041>043-222000-
NORTH


CITY           SKY/WX    TMP DP  RH WIND       PRES   REMARKS
WATERTOWN      PTSUNNY   38  26  62 N7        30.19F WCI  33
FORT DRUM      NOT AVBL
MASSENA        CLOUDY    23  18  81 NE16      30.30F WCI  10
SARANAC LAKE   CLOUDY    29  25  85 NE6       30.16F WCI  23
PLATTSBURGH    CLOUDY    23  20  88 N7        30.33F FOG     WCI  15
$$

NYZ001>004-010>016-019>021-222000-
WEST


CITY           SKY/WX    TMP DP  RH WIND       PRES   REMARKS
NIAGARA FALLS  MOSUNNY   38  25  59 SE5       30.09  WCI  34
BUFFALO        MOSUNNY   40  26  57 CALM      30.08F
DUNKIRK        CLOUDY    39  28  64 N3        30.07F
JAMESTOWN      CLOUDY    36  25  64 SE8       30.03F WCI  29
WELLSVILLE     SUNNY     35  24  64 SE10      30.06F WCI  27
ROCHESTER      MOSUNNY   39  26  59 SE7       30.12F WCI  34
PENN YAN       PTSUNNY   37  25  61 SE9       30.14F WCI  30
$$

             KEY
       WCI = WIND CHILL INDEX
       VSB = VISIBILITY
       HX  = HEAT INDEX
$$


USA.gov is the U.S. government's official web portal to all federal, state and local government web resources and services.